Flag for Germany Weather past 2 weeks in Biberach an der Riss, Baden-Württemberg, Germany

Now
59 °F

Cool.


Feels Like: 59 °F
Forecast: 51 / 62 °F
Wind: 5 mph from Southwest

Location: Laupheim Airport

Current Time: Aug 30, 2014 at 4:25:57 AM

Latest Report: Aug 30, 2014 at 3:20 AM


Visibility: 3 mi

Pressure: 30.09 "Hg

Humidity: 94%

Dew point: 57 °F

Location of Biberach an der RissLocation

Historic Weather in Biberach an der Riss — Graph

°F

Biberach an der Riss temperature yesterday

Maximum temperature yesterday: 68 °F (at 2:20 PM)
Minimum temperature yesterday: 54 °F (at 6:20 AM)
Average temperature yesterday: 61 °F

Past Weeks' High & Low Weather Summary

 TemperatureHumidityPressure
High72 °F (Aug 28, 3:20 PM)100% (Aug 17, 5:20 AM)30.18 "Hg (Aug 17, 5:20 AM)
Low45 °F (Aug 22, 6:20 AM)43% (Aug 19, 5:20 PM)29.74 "Hg (Aug 26, 6:20 AM)
Average58 °F78%30.02 "Hg
* Reported Aug 15 3:20 AM — Aug 30 3:20 AM, Biberach an der Riss, Weather by CustomWeather, © 2014

Note: Actual official high and low records may vary slightly from our data, if they occured in-between our weather recording intervals... More about our weather records

Advertising

Biberach an der Riss weather history for previous 24 hours

 ConditionsComfort  
Time TempWeatherWind HumidityBarometerVisibility
3:20 AM
Aug 30
59 °FCool.5 mph94%30.09 "Hg3 mi
2:20 AM61 °FCool.5 mph94%30.12 "Hg3 mi
1:20 AM61 °FCool.3 mph94%30.09 "Hg3 mi
12:20 AM61 °FCool.3 mph100%30.09 "Hg2 mi
11:20 PM
Aug 29
61 °FCool.3 mph100%30.09 "Hg3 mi
10:20 PM61 °FCool.No wind100%30.09 "Hg2 mi
8:20 PM63 °FMild.2 mph94%30.07 "Hg5 mi
7:20 PM63 °FLight rain. Broken clouds.7 mph94%30.07 "HgN/A
6:20 PM64 °FBroken clouds.5 mph94%30.07 "HgN/A
5:20 PM64 °FSprinkles. Broken clouds.No wind94%30.07 "HgN/A
4:20 PM66 °FBroken clouds.5 mph88%30.07 "HgN/A
3:20 PM68 °FBroken clouds.2 mph78%30.07 "HgN/A
2:20 PM68 °FBroken clouds.5 mph78%30.09 "HgN/A
1:20 PM66 °FBroken clouds.3 mph83%30.09 "HgN/A
12:20 PM63 °FBroken clouds.2 mph88%30.09 "HgN/A
11:20 AM61 °FLight rain. Partly sunny.No wind94%30.09 "HgN/A
10:20 AM61 °FLight rain. Partly sunny.6 mph88%30.09 "HgN/A
9:20 AM59 °FPartly sunny.3 mph94%30.09 "HgN/A
8:20 AM57 °FPartly sunny.No wind94%30.07 "HgN/A
7:20 AM57 °FLight rain. Passing clouds.3 mph94%30.07 "HgN/A
6:20 AM54 °FPassing clouds.1 mph100%30.07 "HgN/A
5:20 AM55 °FPassing clouds.1 mph94%30.07 "HgN/A
4:20 AM55 °FPassing clouds.2 mph94%30.07 "HgN/A
Weather by CustomWeather, © 2014

See weather overviewHow to use our weather pages